Address 0x2b8aadd8f547cbc8cfb036717824a66c22177d52 2

Txn Hash Method
Block
From
To
Value [Txn Fee]
0x964ba5e245ca35b31d125d7878586378a2c86e3e6812116c4f226ddd5c402d54Transfer196279262022-09-07 4:16:3587 days 1 hr ago0x2b8aadd8f547cbc8cfb036717824a66c22177d52OUT0xf1b96f2119533567b928f85501590bda01c0b98f14.251263358339596 AVAX0.0006330
0x4798e3119471b4cf06e8b980cb4eec5fbc197508e81d811373819922eb21bce80x00000110195753332022-09-05 20:43:0188 days 9 hrs ago0x2b8aadd8f547cbc8cfb036717824a66c22177d52OUT 0xe8fd13767de9301c20c30ea00642f1461e9238620 AVAX0.015157989 33
0x83116e4741b3430e31d15ebdedd41ca3eef59c4b0a31bac1c001664860fc6227ROOT4146650865195742152022-09-05 20:03:3288 days 10 hrs ago0x2b8aadd8f547cbc8cfb036717824a66c22177d52OUT 0xe8fd13767de9301c20c30ea00642f1461e9238620 AVAX0.002681316 33
0x76c10ef66a043f89c59394db23a169cb23b94b27bf13eefc7b3685febd47c3abROOT4146650865195699252022-09-05 17:27:3188 days 12 hrs ago0x2b8aadd8f547cbc8cfb036717824a66c22177d52OUT 0xe8fd13767de9301c20c30ea00642f1461e9238620 AVAX0.006966531 33
0xac4e7bbd05424d2dbe8a20e62af7dd4cb0751db891b1383ce66cfaa640d4909bROOT4146650865195682272022-09-05 16:18:5288 days 13 hrs ago0x2b8aadd8f547cbc8cfb036717824a66c22177d52OUT 0xe8fd13767de9301c20c30ea00642f1461e9238620 AVAX0.003567465 33
0x31e9453b6d44550beb09c8d8e36e2a4db4b8675ff845df3cadeff827d9a35b54ROOT4146650865195667332022-09-05 15:16:2688 days 14 hrs ago0x2b8aadd8f547cbc8cfb036717824a66c22177d52OUT 0xe8fd13767de9301c20c30ea00642f1461e9238620 AVAX0.006930363 33
0x51ff00503e13f9482c641e68ee3a1945e0272da06172606510031543796aff2bROOT4146650865195664032022-09-05 15:02:3288 days 15 hrs ago0x2b8aadd8f547cbc8cfb036717824a66c22177d52OUT 0xe8fd13767de9301c20c30ea00642f1461e9238620 AVAX0.024038843473 33.07627375
0x519465f242b57ecfe7614a4f535bdd06984a48ceb1b2ac6277dc3eae2406e086ROOT4146650865195648152022-09-05 13:54:0988 days 16 hrs ago0x2b8aadd8f547cbc8cfb036717824a66c22177d52OUT 0xe8fd13767de9301c20c30ea00642f1461e9238620 AVAX0.006689529 33
0x63db3bdb59c95da1346dfb02691e98613eeddff2f96f2366fe451f9110e15d97ROOT4146650865195640802022-09-05 13:21:0788 days 16 hrs ago0x2b8aadd8f547cbc8cfb036717824a66c22177d52OUT 0xe8fd13767de9301c20c30ea00642f1461e9238620 AVAX0.014268573 33
0x5885a218dab05cc8dee2aec6e20fb78b35001ca585cb303986c6d3bcbbf053990x00000002195632902022-09-05 12:43:1888 days 17 hrs ago0x2b8aadd8f547cbc8cfb036717824a66c22177d52OUT 0xe8fd13767de9301c20c30ea00642f1461e9238620 AVAX0.001340427 33
0x482770894d8042c05227788439044782bfd886385c55d37be78a932462a98124ROOT4146650865195630772022-09-05 12:33:0688 days 17 hrs ago0x2b8aadd8f547cbc8cfb036717824a66c22177d52OUT 0xe8fd13767de9301c20c30ea00642f1461e9238620 AVAX0.007043322 33
0x9d7d0f22869dc3e7fb09fe811501b16ccdd355b7ff96bb390f91317dd576d9e0ROOT4146650865195629802022-09-05 12:28:3288 days 17 hrs ago0x2b8aadd8f547cbc8cfb036717824a66c22177d52OUT 0xe8fd13767de9301c20c30ea00642f1461e9238620 AVAX0.019303251 33
0x7e533755ef734f2dc48693e38c9e7aaa939b29ddec65985130197a8b9cf498230x0000001d195616802022-09-05 11:29:1288 days 18 hrs ago0x2b8aadd8f547cbc8cfb036717824a66c22177d52OUT 0xe8fd13767de9301c20c30ea00642f1461e9238620 AVAX0.010577985 33
0x02d87264dce3b21bbe6061aa4af4d94de27b636fbf98a8ce2be214304dc35ac2ROOT4146650865195606912022-09-05 10:42:0588 days 19 hrs ago0x2b8aadd8f547cbc8cfb036717824a66c22177d52OUT 0xe8fd13767de9301c20c30ea00642f1461e9238620 AVAX0.002577498 33
0xd944f06be3b4ba9a455df420ab96ca5fc05368b7f6d018fa4e7718d8912be659ROOT4146650865195598372022-09-05 9:59:0988 days 20 hrs ago0x2b8aadd8f547cbc8cfb036717824a66c22177d52OUT 0xe8fd13767de9301c20c30ea00642f1461e9238620 AVAX0.007550136 33
0x9ecaa3e737be40b205cec1b9c379ce6e5b9b30b4a47087631a17e7811b57c09d0x0000001a195589022022-09-05 9:17:4888 days 20 hrs ago0x2b8aadd8f547cbc8cfb036717824a66c22177d52OUT 0xe8fd13767de9301c20c30ea00642f1461e9238620 AVAX0.009096318 33
0x9a6998aeca7937b238e33b5de64c9240d9ac5ae9c53cace51bb2081b9c0cfc89ROOT4146650865195583702022-09-05 8:57:5688 days 21 hrs ago0x2b8aadd8f547cbc8cfb036717824a66c22177d52OUT 0xe8fd13767de9301c20c30ea00642f1461e9238620 AVAX0.001352505 33
0xb0aaf25a3a4e7b1b2a070b2739540c8ab40180e95ef2f356f3c07b32b0fdc7feROOT4146650865195579112022-09-05 8:33:5788 days 21 hrs ago0x2b8aadd8f547cbc8cfb036717824a66c22177d52OUT 0xe8fd13767de9301c20c30ea00642f1461e9238620 AVAX0.005808429 33
0xee390c351a1800b9672378e199ec29a261f5d1fb6573882800a80be027394d99ROOT4146650865195576712022-09-05 8:21:5588 days 21 hrs ago0x2b8aadd8f547cbc8cfb036717824a66c22177d52OUT 0xe8fd13767de9301c20c30ea00642f1461e9238620 AVAX0.001337226 33
0x5088f648e51fa2510faa6e2908fd309b0649ea7b5967383621b54db85569af85ROOT4146650865195575542022-09-05 8:15:2188 days 21 hrs ago0x2b8aadd8f547cbc8cfb036717824a66c22177d52OUT 0xe8fd13767de9301c20c30ea00642f1461e9238620 AVAX0.001337226 33
0x4e0c46bda5b3d7ea2cbd7cb537161f715143b0430cd832707708e65898274cc5ROOT4146650865195574532022-09-05 8:10:2988 days 22 hrs ago0x2b8aadd8f547cbc8cfb036717824a66c22177d52OUT 0xe8fd13767de9301c20c30ea00642f1461e9238620 AVAX0.006934422 33
0x43701e0ad568048a82cc29c457f718c9b4ba3da0b21f6a3d9e98347e4b9bdb2d0x00000002195572192022-09-05 7:57:5988 days 22 hrs ago0x2b8aadd8f547cbc8cfb036717824a66c22177d52OUT 0xe8fd13767de9301c20c30ea00642f1461e9238620 AVAX0.001354521581 33.353563862
0x55267750ca673273acabd3972150b810f89b6dbe42cb9b1c199faaa63fea0e79ROOT4146650865195550502022-09-05 5:37:3889 days 34 mins ago0x2b8aadd8f547cbc8cfb036717824a66c22177d52OUT 0xe8fd13767de9301c20c30ea00642f1461e9238620 AVAX0.009398334 33
0x47aefca0b75a7239e213975b086f897cc2d0bea96150bc63510ce17edd22bdaeROOT4146650865195536032022-09-05 3:43:1589 days 2 hrs ago0x2b8aadd8f547cbc8cfb036717824a66c22177d52OUT 0xe8fd13767de9301c20c30ea00642f1461e9238620 AVAX0.002529516 33
0xbf0398ff4a6dade7ed3856e674818bd546b8deeb212368112939aa058079d5abROOT4146650865195527342022-09-05 2:30:4689 days 3 hrs ago0x2b8aadd8f547cbc8cfb036717824a66c22177d52OUT 0xe8fd13767de9301c20c30ea00642f1461e9238620 AVAX0.007047381 33
[ Download CSV Export 
Parent Txn Hash Block From To Value
Loading

Contract Name:
0

Compiler Version
0

Optimization Enabled:
0

Other Settings:
-NA-
Block Transaction Gas Used Reward
Age Block Fee Address BC Fee Address Voting Power Jailed Incoming
Block Uncle Number Difficulty Gas Used Reward
Loading
Make sure to use the "Vote Down" button for any spammy posts, and the "Vote Up" for interesting conversations.